| time (UTC) | temp F | wind direction | speed MPH | gust MPH | rain 1hr in | rain 24hr in | rain mn in | humidity % | barometer mb |
| 20260831032526 | 68 | 0.0 | 0.0 | 0.00 | 0.00 | 0.00 | 40 | 1020.2 | |
| 20260831032026 | 68 | 0.0 | 0.0 | 0.00 | 0.00 | 0.00 | 40 | 1020.0 | |
| 20260831031526 | 68 | 0.0 | 0.0 | 0.00 | 0.00 | 0.00 | 40 | 1020.0 | |
| 20260831031026 | 68 | 0.0 | 1.0 | 0.00 | 0.00 | 0.00 | 39 | 1020.0 | |
| 20260831030526 | 68 | 0.0 | 1.0 | 0.00 | 0.00 | 0.00 | 39 | 1019.9 | |
| 20260831030026 | 69 | 0.0 | 0.0 | 0.00 | 0.00 | 0.00 | 39 | 1019.8 | |
| 20260831025526 | 69 | 0.0 | 1.0 | 0.00 | 0.00 | 0.00 | 38 | 1019.9 | |
| 20260831025026 | 69 | 0.0 | 2.0 | 0.00 | 0.00 | 0.00 | 37 | 1020.0 | |
| 20260831024546 | 69 | 355 | 1.0 | 2.0 | 0.00 | 0.00 | 0.00 | 36 | 1020.0 |
| 20260831024026 | 69 | 0.0 | 2.0 | 0.00 | 0.00 | 0.00 | 35 | 1020.0 | |
| 20260831023526 | 69 | 0.0 | 2.0 | 0.00 | 0.00 | 0.00 | 34 | 1020.0 | |
| 20260831023026 | 69 | 1 | 1.0 | 3.0 | 0.00 | 0.00 | 0.00 | 34 | 1020.0 |
| 20260831022526 | 69 | 0.0 | 0.0 | 0.00 | 0.00 | 0.00 | 34 | 1019.9 | |
| 20260831022026 | 69 | 0.0 | 2.0 | 0.00 | 0.00 | 0.00 | 34 | 1019.9 | |
| 20260831021606 | 69 | 1 | 1.0 | 4.0 | 0.00 | 0.00 | 0.00 | 34 | 1019.8 |
| 20260831021026 | 69 | 0.0 | 2.0 | 0.00 | 0.00 | 0.00 | 35 | 1019.8 | |
| 20260831020526 | 69 | 0.0 | 0.0 | 0.00 | 0.00 | 0.00 | 35 | 1019.8 | |
| 20260831020026 | 69 | 0.0 | 0.0 | 0.00 | 0.00 | 0.00 | 36 | 1019.6 | |
| 20260831015526 | 69 | 0.0 | 0.0 | 0.00 | 0.00 | 0.00 | 36 | 1019.7 | |
| 20260831015026 | 69 | 0.0 | 0.0 | 0.00 | 0.00 | 0.00 | 36 | 1019.8 | |
| 20260831014546 | 69 | 0.0 | 0.0 | 0.00 | 0.00 | 0.00 | 36 | 1019.8 | |
| 20260831014026 | 69 | 0.0 | 1.0 | 0.00 | 0.00 | 0.00 | 36 | 1019.9 | |
| 20260831013526 | 69 | 0.0 | 1.0 | 0.00 | 0.00 | 0.00 | 36 | 1019.9 | |
| 20260831013026 | 69 | 115 | 1.0 | 2.0 | 0.00 | 0.00 | 0.00 | 37 | 1019.7 |
| 20260831012526 | 69 | 0.0 | 3.0 | 0.00 | 0.00 | 0.00 | 38 | 1019.8 | |
| 20260831012106 | 69 | 105 | 1.0 | 2.0 | 0.00 | 0.00 | 0.00 | 40 | 1019.7 |
| 20260831011526 | 69 | 0.0 | 3.0 | 0.00 | 0.00 | 0.00 | 42 | 1019.5 | |
| 20260831011026 | 69 | 0.0 | 0.0 | 0.00 | 0.00 | 0.00 | 44 | 1019.5 | |
| 20260831010546 | 69 | 0.0 | 0.0 | 0.00 | 0.00 | 0.00 | 46 | 1019.4 | |
| 20260831010026 | 69 | 0.0 | 0.0 | 0.00 | 0.00 | 0.00 | 47 | 1019.3 | |
| 20260831005526 | 69 | 0.0 | 0.0 | 0.00 | 0.00 | 0.00 | 48 | 1019.3 | |
| 20260831005026 | 69 | 0.0 | 0.0 | 0.00 | 0.00 | 0.00 | 49 | 1019.1 | |
| 20260831004526 | 69 | 0.0 | 0.0 | 0.00 | 0.00 | 0.00 | 49 | 1019.1 | |
| 20260831004026 | 69 | 0.0 | 0.0 | 0.00 | 0.00 | 0.00 | 50 | 1018.9 | |
| 20260831003525 | 69 | 0.0 | 0.0 | 0.00 | 0.00 | 0.00 | 51 | 1018.9 | |
| 20260831003026 | 69 | 0.0 | 0.0 | 0.00 | 0.00 | 0.00 | 51 | 1018.8 | |
| 20260831002526 | 69 | 0.0 | 0.0 | 0.00 | 0.00 | 0.00 | 52 | 1018.9 | |
| 20260831002026 | 69 | 0.0 | 0.0 | 0.00 | 0.00 | 0.00 | 52 | 1018.9 | |
| 20260831001525 | 69 | 0.0 | 0.0 | 0.00 | 0.00 | 0.00 | 52 | 1018.8 | |
| 20260831001026 | 70 | 0.0 | 0.0 | 0.00 | 0.00 | 0.00 | 53 | 1018.7 | |
| 20260831000546 | 70 | 0.0 | 0.0 | 0.00 | 0.00 | 0.00 | 54 | 1018.6 | |
| 20260831000026 | 70 | 0.0 | 0.0 | 0.00 | 0.00 | 0.00 | 55 | 1018.7 | |
| 20260830235526 | 70 | 0.0 | 0.0 | 0.00 | 0.00 | 0.00 | 56 | 1018.6 | |
| 20260830235026 | 70 | 0.0 | 0.0 | 0.00 | 0.00 | 0.00 | 58 | 1018.6 | |
| 20260830234525 | 70 | 0.0 | 0.0 | 0.00 | 0.00 | 0.00 | 58 | 1018.6 | |
| 20260830234025 | 71 | 0.0 | 0.0 | 0.00 | 0.00 | 0.00 | 59 | 1018.7 | |
| 20260830233525 | 71 | 0.0 | 0.0 | 0.00 | 0.00 | 0.00 | 59 | 1018.7 | |
| 20260830233026 | 71 | 0.0 | 0.0 | 0.00 | 0.00 | 0.00 | 59 | 1018.8 | |
| 20260830232526 | 71 | 0.0 | 0.0 | 0.00 | 0.00 | 0.00 | 59 | 1018.9 | |
| 20260830232025 | 71 | 0.0 | 0.0 | 0.00 | 0.00 | 0.00 | 59 | 1018.7 | |
| 20260830231525 | 71 | 0.0 | 0.0 | 0.00 | 0.00 | 0.00 | 59 | 1018.6 | |
| 20260830231026 | 71 | 0.0 | 0.0 | 0.00 | 0.00 | 0.00 | 59 | 1018.6 | |
| 20260830230525 | 71 | 0.0 | 0.0 | 0.00 | 0.00 | 0.00 | 60 | 1018.7 | |
| 20260830230026 | 72 | 0.0 | 0.0 | 0.00 | 0.00 | 0.00 | 59 | 1018.7 | |
| 20260830225526 | 72 | 0.0 | 0.0 | 0.00 | 0.00 | 0.00 | 59 | 1018.8 | |
| 20260830225045 | 72 | 0.0 | 0.0 | 0.00 | 0.00 | 0.00 | 59 | 1018.7 | |
| 20260830224525 | 72 | 0.0 | 0.0 | 0.00 | 0.00 | 0.00 | 59 | 1018.9 | |
| 20260830224025 | 72 | 0.0 | 0.0 | 0.00 | 0.00 | 0.00 | 59 | 1018.9 | |
| 20260830223526 | 73 | 0.0 | 0.0 | 0.00 | 0.00 | 0.00 | 59 | 1018.8 | |
| 20260830223025 | 73 | 0.0 | 0.0 | 0.00 | 0.00 | 0.00 | 59 | 1018.9 | |
| 20260830222525 | 73 | 0.0 | 0.0 | 0.00 | 0.00 | 0.00 | 58 | 1018.8 | |
| 20260830222025 | 73 | 0.0 | 0.0 | 0.00 | 0.00 | 0.00 | 58 | 1018.8 | |
| 20260830221525 | 73 | 0.0 | 0.0 | 0.00 | 0.00 | 0.00 | 58 | 1018.8 | |
| 20260830221045 | 73 | 0.0 | 0.0 | 0.00 | 0.00 | 0.00 | 58 | 1018.9 | |
| 20260830220525 | 74 | 0.0 | 0.0 | 0.00 | 0.00 | 0.00 | 57 | 1018.9 | |
| 20260830220025 | 74 | 0.0 | 0.0 | 0.00 | 0.00 | 0.00 | 57 | 1018.8 | |
| 20260830215525 | 74 | 0.0 | 0.0 | 0.00 | 0.00 | 0.00 | 57 | 1018.9 | |
| 20260830215045 | 74 | 0.0 | 0.0 | 0.00 | 0.00 | 0.00 | 57 | 1018.8 | |
| 20260830214525 | 74 | 0.0 | 1.0 | 0.00 | 0.00 | 0.00 | 56 | 1018.9 | |
| 20260830214025 | 74 | 0.0 | 1.0 | 0.00 | 0.00 | 0.00 | 56 | 1018.9 | |
| 20260830213525 | 74 | 0.0 | 1.0 | 0.00 | 0.00 | 0.00 | 56 | 1018.9 | |
| 20260830213025 | 74 | 0.0 | 2.0 | 0.00 | 0.00 | 0.00 | 56 | 1019.1 | |
| 20260830212525 | 75 | 0.0 | 2.0 | 0.00 | 0.00 | 0.00 | 55 | 1019.1 | |
| 20260830212025 | 75 | 0.0 | 2.0 | 0.00 | 0.00 | 0.00 | 56 | 1019.0 | |
| 20260830211525 | 75 | 0.0 | 1.0 | 0.00 | 0.00 | 0.00 | 56 | 1018.7 | |
| 20260830211025 | 75 | 113 | 1.0 | 3.0 | 0.00 | 0.00 | 0.00 | 55 | 1018.8 |
| 20260830210525 | 75 | 0.0 | 2.0 | 0.00 | 0.00 | 0.00 | 56 | 1018.9 | |
| 20260830210025 | 75 | 0.0 | 1.0 | 0.00 | 0.00 | 0.00 | 56 | 1019.0 | |
| 20260830205525 | 75 | 0.0 | 2.0 | 0.00 | 0.00 | 0.00 | 56 | 1019.0 | |
| 20260830205025 | 75 | 0.0 | 1.0 | 0.00 | 0.00 | 0.00 | 56 | 1019.0 | |
| 20260830204605 | 75 | 0.0 | 1.0 | 0.00 | 0.00 | 0.00 | 55 | 1018.9 | |
| 20260830204025 | 75 | 0.0 | 1.0 | 0.00 | 0.00 | 0.00 | 57 | 1018.9 | |
| 20260830203545 | 75 | 0.0 | 2.0 | 0.00 | 0.00 | 0.00 | 56 | 1019.0 | |
| 20260830203025 | 75 | 123 | 1.0 | 2.0 | 0.00 | 0.00 | 0.00 | 54 | 1019.0 |
| 20260830202525 | 75 | 122 | 1.0 | 2.0 | 0.00 | 0.00 | 0.00 | 54 | 1019.0 |
| 20260830202025 | 75 | 0.0 | 3.0 | 0.00 | 0.00 | 0.00 | 54 | 1019.0 | |
| 20260830201625 | 76 | 0.0 | 2.0 | 0.00 | 0.00 | 0.00 | 54 | 1019.0 | |
| 20260830201025 | 76 | 0.0 | 3.0 | 0.00 | 0.00 | 0.00 | 54 | 1019.1 | |
| 20260830200525 | 76 | 0.0 | 0.0 | 0.00 | 0.00 | 0.00 | 53 | 1019.2 | |
| 20260830200025 | 76 | 0.0 | 0.0 | 0.00 | 0.00 | 0.00 | 54 | 1019.3 | |
| 20260830195525 | 76 | 0.0 | 0.0 | 0.00 | 0.00 | 0.00 | 54 | 1019.3 | |
| 20260830195025 | 75 | 0.0 | 0.0 | 0.00 | 0.00 | 0.00 | 53 | 1019.4 | |
| 20260830194527 | 75 | 0.0 | 0.0 | 0.00 | 0.00 | 0.00 | 54 | 1019.3 | |
| 20260830194025 | 75 | 0.0 | 0.0 | 0.00 | 0.00 | 0.00 | 54 | 1019.2 | |
| 20260830193527 | 75 | 0.0 | 0.0 | 0.00 | 0.00 | 0.00 | 55 | 1019.4 | |
| 20260830193025 | 74 | 0.0 | 0.0 | 0.00 | 0.00 | 0.00 | 54 | 1019.5 | |
| 20260830192527 | 74 | 0.0 | 0.0 | 0.00 | 0.00 | 0.00 | 53 | 1019.6 | |
| 20260830192047 | 75 | 0.0 | 0.0 | 0.00 | 0.00 | 0.00 | 54 | 1019.7 | |
| 20260830191527 | 75 | 0.0 | 0.0 | 0.00 | 0.00 | 0.00 | 53 | 1019.9 | |
| 20260830191027 | 75 | 0.0 | 0.0 | 0.00 | 0.00 | 0.00 | 52 | 1019.8 | |
| 20260830190527 | 75 | 0.0 | 0.0 | 0.00 | 0.00 | 0.00 | 52 | 1020.0 | |
| 20260830190027 | 76 | 0.0 | 0.0 | 0.00 | 0.00 | 0.00 | 53 | 1020.0 | |
| 20260830185527 | 76 | 0.0 | 0.0 | 0.00 | 0.00 | 0.00 | 50 | 1019.9 | |
| 20260830185027 | 76 | 0.0 | 0.0 | 0.00 | 0.00 | 0.00 | 48 | 1020.2 | |
| 20260830184527 | 76 | 0.0 | 0.0 | 0.00 | 0.00 | 0.00 | 48 | 1020.3 | |
| 20260830184027 | 77 | 0.0 | 1.0 | 0.00 | 0.00 | 0.00 | 47 | 1020.5 | |
| 20260830183527 | 77 | 0.0 | 2.0 | 0.00 | 0.00 | 0.00 | 46 | 1020.6 | |
| 20260830183027 | 77 | 0.0 | 3.0 | 0.00 | 0.00 | 0.00 | 45 | 1020.6 | |
| 20260830182527 | 78 | 28 | 1.0 | 3.0 | 0.00 | 0.00 | 0.00 | 46 | 1020.4 |
| 20260830182027 | 79 | 22 | 1.0 | 4.0 | 0.00 | 0.00 | 0.00 | 45 | 1020.5 |
| 20260830181527 | 79 | 2 | 1.0 | 4.0 | 0.00 | 0.00 | 0.00 | 44 | 1020.5 |
| 20260830181107 | 79 | 79 | 1.0 | 2.0 | 0.00 | 0.00 | 0.00 | 40 | 1020.6 |
| 20260830180527 | 79 | 81 | 1.0 | 3.0 | 0.00 | 0.00 | 0.00 | 40 | 1020.6 |
| 20260830180027 | 79 | 0.0 | 2.0 | 0.00 | 0.00 | 0.00 | 38 | 1020.5 | |
| 20260830175527 | 78 | 0.0 | 1.0 | 0.00 | 0.00 | 0.00 | 29 | 1020.5 | |
| 20260830175027 | 77 | 0.0 | 1.0 | 0.00 | 0.00 | 0.00 | 31 | 1020.6 | |
| 20260830174527 | 76 | 0.0 | 1.0 | 0.00 | 0.00 | 0.00 | 32 | 1020.7 | |
| 20260830174027 | 76 | 0.0 | 1.0 | 0.00 | 0.00 | 0.00 | 32 | 1020.7 | |
| 20260830173547 | 76 | 0.0 | 3.0 | 0.00 | 0.00 | 0.00 | 33 | 1020.9 | |
| 20260830173047 | 76 | 0.0 | 2.0 | 0.00 | 0.00 | 0.00 | 34 | 1020.8 | |
| 20260830172527 | 76 | 0.0 | 2.0 | 0.00 | 0.00 | 0.00 | 33 | 1021.0 | |
| 20260830172027 | 76 | 0.0 | 1.0 | 0.00 | 0.00 | 0.00 | 35 | 1021.0 | |
| 20260830171547 | 76 | 0.0 | 1.0 | 0.00 | 0.00 | 0.00 | 34 | 1021.1 | |
| 20260830171027 | 76 | 0.0 | 1.0 | 0.00 | 0.00 | 0.00 | 33 | 1021.2 | |
| 20260830170527 | 76 | 117 | 1.0 | 2.0 | 0.00 | 0.00 | 0.00 | 32 | 1021.3 |
| 20260830170107 | 75 | 0.0 | 2.0 | 0.00 | 0.00 | 0.00 | 32 | 1021.2 | |
| 20260830165527 | 75 | 0.0 | 4.0 | 0.00 | 0.00 | 0.00 | 32 | 1021.4 | |
| 20260830165027 | 75 | 0.0 | 0.0 | 0.00 | 0.00 | 0.00 | 34 | 1021.4 | |
| 20260830164527 | 75 | 0.0 | 2.0 | 0.00 | 0.00 | 0.00 | 30 | 1021.3 | |
| 20260830164027 | 76 | 0.0 | 1.0 | 0.00 | 0.00 | 0.00 | 34 | 1021.4 | |
| 20260830163527 | 76 | 0.0 | 2.0 | 0.00 | 0.00 | 0.00 | 34 | 1021.3 | |
| 20260830163027 | 76 | 0.0 | 1.0 | 0.00 | 0.00 | 0.00 | 31 | 1021.3 | |
| 20260830162526 | 76 | 0.0 | 2.0 | 0.00 | 0.00 | 0.00 | 32 | 1021.4 | |
| 20260830162027 | 76 | 0.0 | 2.0 | 0.00 | 0.00 | 0.00 | 30 | 1021.5 | |
| 20260830161527 | 77 | 0.0 | 1.0 | 0.00 | 0.00 | 0.00 | 31 | 1021.6 | |
| 20260830161047 | 76 | 141 | 1.0 | 3.0 | 0.00 | 0.00 | 0.00 | 32 | 1021.6 |
| 20260830160547 | 76 | 49 | 1.0 | 3.0 | 0.00 | 0.00 | 0.00 | 30 | 1021.7 |
| 20260830160027 | 76 | 34 | 1.0 | 4.0 | 0.00 | 0.00 | 0.00 | 32 | 1021.8 |
| 20260830155527 | 75 | 40 | 2.0 | 4.0 | 0.00 | 0.00 | 0.00 | 32 | 1021.9 |
| 20260830155027 | 75 | 0.0 | 2.0 | 0.00 | 0.00 | 0.00 | 34 | 1022.0 | |
| 20260830154527 | 74 | 80 | 1.0 | 3.0 | 0.00 | 0.00 | 0.00 | 32 | 1022.1 |
| 20260830154047 | 73 | 0.0 | 4.0 | 0.00 | 0.00 | 0.00 | 32 | 1022.1 | |
| 20260830153527 | 73 | 161 | 1.0 | 2.0 | 0.00 | 0.00 | 0.00 | 34 | 1022.1 |
| 20260830153047 | 72 | 156 | 1.0 | 4.0 | 0.00 | 0.00 | 0.00 | 31 | 1022.2 |
| 20260830152527 | 72 | 0.0 | 0.0 | 0.00 | 0.00 | 0.00 | 32 | 1022.2 | |
| 20260830152027 | 71 | 0.0 | 0.0 | 0.00 | 0.00 | 0.00 | 33 | 1022.2 | |
| 20260830151607 | 71 | 0.0 | 0.0 | 0.00 | 0.00 | 0.00 | 34 | 1022.3 | |
| 20260830151027 | 70 | 0.0 | 0.0 | 0.00 | 0.00 | 0.00 | 33 | 1022.4 | |
| 20260830150527 | 70 | 0.0 | 0.0 | 0.00 | 0.00 | 0.00 | 34 | 1022.3 | |
| 20260830150027 | 69 | 0.0 | 0.0 | 0.00 | 0.00 | 0.00 | 35 | 1022.5 | |
| 20260830145526 | 69 | 0.0 | 0.0 | 0.00 | 0.00 | 0.00 | 36 | 1022.5 | |
| 20260830145027 | 69 | 0.0 | 0.0 | 0.00 | 0.00 | 0.00 | 36 | 1022.5 | |
| 20260830144526 | 69 | 0.0 | 0.0 | 0.00 | 0.00 | 0.00 | 36 | 1022.5 | |
| 20260830144027 | 69 | 0.0 | 0.0 | 0.00 | 0.00 | 0.00 | 35 | 1022.5 | |
| 20260830143527 | 69 | 0.0 | 0.0 | 0.00 | 0.00 | 0.00 | 36 | 1022.6 | |
| 20260830143027 | 68 | 0.0 | 0.0 | 0.00 | 0.00 | 0.00 | 37 | 1022.6 | |
| 20260830142527 | 68 | 0.0 | 0.0 | 0.00 | 0.00 | 0.00 | 38 | 1022.5 | |
| 20260830142026 | 67 | 0.0 | 0.0 | 0.00 | 0.00 | 0.00 | 36 | 1022.4 | |
| 20260830141527 | 67 | 0.0 | 0.0 | 0.00 | 0.00 | 0.00 | 38 | 1022.6 | |
| 20260830141026 | 66 | 0.0 | 0.0 | 0.00 | 0.00 | 0.00 | 38 | 1022.7 | |
| 20260830140526 | 66 | 0.0 | 0.0 | 0.00 | 0.00 | 0.00 | 40 | 1022.8 | |
| 20260830140047 | 66 | 0.0 | 0.0 | 0.00 | 0.00 | 0.00 | 40 | 1022.9 | |
| 20260830135526 | 65 | 0.0 | 0.0 | 0.00 | 0.00 | 0.00 | 41 | 1022.8 | |
| 20260830135026 | 65 | 0.0 | 0.0 | 0.00 | 0.00 | 0.00 | 43 | 1022.9 | |
| 20260830134526 | 65 | 0.0 | 0.0 | 0.00 | 0.00 | 0.00 | 43 | 1023.0 | |
| 20260830134106 | 64 | 0.0 | 0.0 | 0.00 | 0.00 | 0.00 | 43 | 1023.0 | |
| 20260830133526 | 64 | 0.0 | 0.0 | 0.00 | 0.00 | 0.00 | 44 | 1023.1 | |
| 20260830133026 | 63 | 0.0 | 0.0 | 0.00 | 0.00 | 0.00 | 44 | 1023.0 | |
| 20260830132526 | 63 | 0.0 | 0.0 | 0.00 | 0.00 | 0.00 | 44 | 1022.9 | |
| 20260830132026 | 63 | 0.0 | 0.0 | 0.00 | 0.00 | 0.00 | 45 | 1023.0 | |
| 20260830131526 | 63 | 0.0 | 0.0 | 0.00 | 0.00 | 0.00 | 45 | 1023.0 | |
| 20260830131026 | 63 | 0.0 | 0.0 | 0.00 | 0.00 | 0.00 | 45 | 1023.1 | |
| 20260830130526 | 62 | 0.0 | 0.0 | 0.00 | 0.00 | 0.00 | 45 | 1023.1 | |
| 20260830130026 | 62 | 0.0 | 0.0 | 0.00 | 0.00 | 0.00 | 45 | 1023.2 | |
| 20260830125526 | 61 | 0.0 | 0.0 | 0.00 | 0.00 | 0.00 | 46 | 1023.2 | |
| 20260830125026 | 61 | 0.0 | 0.0 | 0.00 | 0.00 | 0.00 | 46 | 1023.0 | |
| 20260830124526 | 61 | 0.0 | 0.0 | 0.00 | 0.00 | 0.00 | 46 | 1023.1 | |
| 20260830124046 | 61 | 0.0 | 0.0 | 0.00 | 0.00 | 0.00 | 46 | 1023.2 | |
| 20260830123546 | 61 | 0.0 | 0.0 | 0.00 | 0.00 | 0.00 | 46 | 1023.4 | |
| 20260830123026 | 60 | 0.0 | 0.0 | 0.00 | 0.00 | 0.00 | 46 | 1023.3 | |
| 20260830122526 | 60 | 0.0 | 0.0 | 0.00 | 0.00 | 0.00 | 46 | 1023.4 | |
| 20260830122046 | 60 | 0.0 | 0.0 | 0.00 | 0.00 | 0.00 | 46 | 1023.4 | |
| 20260830121526 | 60 | 0.0 | 0.0 | 0.00 | 0.00 | 0.00 | 46 | 1023.6 | |
| 20260830121046 | 59 | 0.0 | 0.0 | 0.00 | 0.00 | 0.00 | 46 | 1023.5 | |
| 20260830120526 | 58 | 0.0 | 0.0 | 0.00 | 0.00 | 0.00 | 46 | 1023.6 | |
| 20260830120026 | 58 | 0.0 | 0.0 | 0.00 | 0.00 | 0.00 | 46 | 1023.6 | |
| 20260830115526 | 57 | 0.0 | 0.0 | 0.00 | 0.00 | 0.00 | 47 | 1023.6 | |
| 20260830115026 | 57 | 0.0 | 0.0 | 0.00 | 0.00 | 0.00 | 46 | 1023.6 | |
| 20260830114526 | 56 | 0.0 | 0.0 | 0.00 | 0.00 | 0.00 | 47 | 1023.5 | |
| 20260830114026 | 55 | 0.0 | 0.0 | 0.00 | 0.00 | 0.00 | 47 | 1023.5 | |
| 20260830113526 | 55 | 0.0 | 0.0 | 0.00 | 0.00 | 0.00 | 47 | 1023.6 | |
| 20260830113026 | 54 | 0.0 | 0.0 | 0.00 | 0.00 | 0.00 | 47 | 1023.5 | |
| 20260830112526 | 54 | 0.0 | 0.0 | 0.00 | 0.00 | 0.00 | 47 | 1023.5 | |
| 20260830112026 | 54 | 0.0 | 0.0 | 0.00 | 0.00 | 0.00 | 47 | 1023.5 | |
| 20260830111526 | 54 | 0.0 | 0.0 | 0.00 | 0.00 | 0.00 | 46 | 1023.5 | |
| 20260830111026 | 53 | 0.0 | 0.0 | 0.00 | 0.00 | 0.00 | 46 | 1023.5 | |
| 20260830110526 | 53 | 0.0 | 0.0 | 0.00 | 0.00 | 0.00 | 46 | 1023.5 | |
| 20260830110026 | 53 | 0.0 | 0.0 | 0.00 | 0.00 | 0.00 | 46 | 1023.4 | |
| 20260830105526 | 53 | 0.0 | 0.0 | 0.00 | 0.00 | 0.00 | 46 | 1023.4 | |
| 20260830105026 | 53 | 0.0 | 0.0 | 0.00 | 0.00 | 0.00 | 46 | 1023.6 | |
| 20260830104526 | 53 | 0.0 | 0.0 | 0.00 | 0.00 | 0.00 | 46 | 1023.5 | |
| 20260830104046 | 53 | 0.0 | 0.0 | 0.00 | 0.00 | 0.00 | 46 | 1023.5 | |
| 20260830103526 | 53 | 0.0 | 0.0 | 0.00 | 0.00 | 0.00 | 46 | 1023.5 | |
| 20260830103026 | 53 | 0.0 | 0.0 | 0.00 | 0.00 | 0.00 | 46 | 1023.6 | |
| 20260830102526 | 53 | 0.0 | 0.0 | 0.00 | 0.00 | 0.00 | 46 | 1023.6 | |
| 20260830102046 | 53 | 0.0 | 0.0 | 0.00 | 0.00 | 0.00 | 46 | 1023.5 | |
| 20260830101526 | 53 | 0.0 | 0.0 | 0.00 | 0.00 | 0.00 | 46 | 1023.5 | |
| 20260830101026 | 53 | 0.0 | 0.0 | 0.00 | 0.00 | 0.00 | 46 | 1023.5 | |
| 20260830100526 | 53 | 0.0 | 0.0 | 0.00 | 0.00 | 0.00 | 46 | 1023.6 | |
| 20260830100026 | 53 | 0.0 | 0.0 | 0.00 | 0.00 | 0.00 | 46 | 1023.7 | |
| 20260830095526 | 53 | 0.0 | 0.0 | 0.00 | 0.00 | 0.00 | 46 | 1023.7 | |
| 20260830095026 | 54 | 0.0 | 0.0 | 0.00 | 0.00 | 0.00 | 46 | 1023.6 | |
| 20260830094526 | 54 | 0.0 | 0.0 | 0.00 | 0.00 | 0.00 | 46 | 1023.7 | |
| 20260830094026 | 54 | 0.0 | 0.0 | 0.00 | 0.00 | 0.00 | 46 | 1023.8 | |
| 20260830093546 | 54 | 0.0 | 0.0 | 0.00 | 0.00 | 0.00 | 46 | 1023.8 | |
| 20260830093026 | 54 | 0.0 | 0.0 | 0.00 | 0.00 | 0.00 | 46 | 1023.9 | |
| 20260830092526 | 54 | 0.0 | 0.0 | 0.00 | 0.00 | 0.00 | 46 | 1023.8 | |
| 20260830092026 | 54 | 0.0 | 0.0 | 0.00 | 0.00 | 0.00 | 46 | 1023.7 | |
| 20260830091546 | 54 | 0.0 | 0.0 | 0.00 | 0.00 | 0.00 | 46 | 1023.9 | |
| 20260830091026 | 54 | 0.0 | 0.0 | 0.00 | 0.00 | 0.00 | 46 | 1023.9 | |
| 20260830090526 | 54 | 0.0 | 0.0 | 0.00 | 0.00 | 0.00 | 46 | 1023.9 | |
| 20260830090026 | 54 | 0.0 | 0.0 | 0.00 | 0.00 | 0.00 | 46 | 1023.8 | |
| 20260830085526 | 54 | 0.0 | 0.0 | 0.00 | 0.00 | 0.00 | 46 | 1024.0 | |
| 20260830085026 | 54 | 0.0 | 0.0 | 0.00 | 0.00 | 0.00 | 46 | 1023.9 | |
| 20260830084526 | 54 | 0.0 | 0.0 | 0.00 | 0.00 | 0.00 | 46 | 1023.9 | |
| 20260830084026 | 53 | 0.0 | 0.0 | 0.00 | 0.00 | 0.00 | 46 | 1023.8 | |
| 20260830083526 | 53 | 0.0 | 0.0 | 0.00 | 0.00 | 0.00 | 46 | 1023.7 | |
| 20260830083026 | 53 | 0.0 | 0.0 | 0.00 | 0.00 | 0.00 | 46 | 1023.7 | |
| 20260830082526 | 53 | 0.0 | 0.0 | 0.00 | 0.00 | 0.00 | 46 | 1023.8 | |
| 20260830082026 | 53 | 0.0 | 0.0 | 0.00 | 0.00 | 0.00 | 46 | 1023.7 | |
| 20260830081526 | 53 | 0.0 | 0.0 | 0.00 | 0.00 | 0.00 | 46 | 1023.7 | |
| 20260830081026 | 53 | 0.0 | 0.0 | 0.00 | 0.00 | 0.00 | 46 | 1023.8 | |
| 20260830080526 | 53 | 0.0 | 0.0 | 0.00 | 0.00 | 0.00 | 46 | 1023.7 | |
| 20260830080026 | 53 | 0.0 | 0.0 | 0.00 | 0.00 | 0.00 | 46 | 1023.7 | |
| 20260830075526 | 53 | 0.0 | 0.0 | 0.00 | 0.00 | 0.00 | 46 | 1023.8 | |
| 20260830075026 | 53 | 0.0 | 0.0 | 0.00 | 0.00 | 0.00 | 46 | 1024.0 | |
| 20260830074525 | 53 | 0.0 | 0.0 | 0.00 | 0.00 | 0.00 | 46 | 1024.2 | |
| 20260830074026 | 53 | 0.0 | 0.0 | 0.00 | 0.00 | 0.00 | 46 | 1024.3 | |
| 20260830073525 | 53 | 0.0 | 0.0 | 0.00 | 0.00 | 0.00 | 46 | 1024.4 | |
| 20260830073026 | 53 | 0.0 | 0.0 | 0.00 | 0.00 | 0.00 | 46 | 1024.4 | |
| 20260830072526 | 53 | 0.0 | 0.0 | 0.00 | 0.00 | 0.00 | 46 | 1024.3 | |
| 20260830072026 | 53 | 0.0 | 0.0 | 0.00 | 0.00 | 0.00 | 46 | 1024.2 | |
| 20260830071526 | 53 | 0.0 | 0.0 | 0.00 | 0.00 | 0.00 | 46 | 1024.2 | |
| 20260830071026 | 53 | 0.0 | 0.0 | 0.00 | 0.00 | 0.00 | 46 | 1024.3 | |
| 20260830070526 | 53 | 0.0 | 0.0 | 0.00 | 0.00 | 0.00 | 46 | 1024.2 | |
| 20260830070026 | 53 | 0.0 | 0.0 | 0.00 | 0.00 | 0.00 | 46 | 1024.2 | |
| 20260830065526 | 53 | 0.0 | 0.0 | 0.00 | 0.00 | 0.00 | 46 | 1024.1 | |
| 20260830065046 | 53 | 0.0 | 0.0 | 0.00 | 0.00 | 0.00 | 46 | 1024.0 | |
| 20260830064525 | 53 | 0.0 | 0.0 | 0.00 | 0.00 | 0.00 | 46 | 1023.9 | |
| 20260830064026 | 53 | 0.0 | 0.0 | 0.00 | 0.00 | 0.00 | 46 | 1023.8 | |
| 20260830063525 | 53 | 0.0 | 0.0 | 0.00 | 0.00 | 0.00 | 46 | 1023.7 | |
| 20260830063026 | 53 | 0.0 | 0.0 | 0.00 | 0.00 | 0.00 | 46 | 1023.8 | |
| 20260830062526 | 53 | 0.0 | 0.0 | 0.00 | 0.00 | 0.00 | 46 | 1023.7 | |
| 20260830062025 | 53 | 0.0 | 0.0 | 0.00 | 0.00 | 0.00 | 46 | 1023.7 | |
| 20260830061526 | 53 | 0.0 | 0.0 | 0.00 | 0.00 | 0.00 | 46 | 1023.7 | |
| 20260830061026 | 53 | 0.0 | 0.0 | 0.00 | 0.00 | 0.00 | 46 | 1023.6 | |
| 20260830060526 | 53 | 0.0 | 0.0 | 0.00 | 0.00 | 0.00 | 46 | 1023.7 | |
| 20260830060025 | 53 | 0.0 | 0.0 | 0.00 | 0.00 | 0.00 | 46 | 1023.7 | |
| 20260830055526 | 53 | 0.0 | 0.0 | 0.00 | 0.00 | 0.00 | 46 | 1023.7 | |
| 20260830055025 | 53 | 0.0 | 0.0 | 0.00 | 0.00 | 0.00 | 46 | 1023.7 | |
| 20260830054525 | 53 | 0.0 | 0.0 | 0.00 | 0.00 | 0.00 | 46 | 1023.7 | |
| 20260830054025 | 53 | 0.0 | 0.0 | 0.00 | 0.00 | 0.00 | 46 | 1023.8 | |
| 20260830053545 | 53 | 0.0 | 0.0 | 0.00 | 0.00 | 0.00 | 46 | 1023.8 | |
| 20260830053026 | 53 | 0.0 | 0.0 | 0.00 | 0.00 | 0.00 | 46 | 1023.8 | |
| 20260830052525 | 53 | 0.0 | 0.0 | 0.00 | 0.00 | 0.00 | 46 | 1023.9 | |
| 20260830052025 | 53 | 0.0 | 0.0 | 0.00 | 0.00 | 0.00 | 46 | 1024.0 | |
| 20260830051545 | 53 | 0.0 | 0.0 | 0.00 | 0.00 | 0.00 | 45 | 1024.0 | |
| 20260830051025 | 53 | 0.0 | 0.0 | 0.00 | 0.00 | 0.00 | 45 | 1024.0 | |
| 20260830050525 | 54 | 0.0 | 0.0 | 0.00 | 0.00 | 0.00 | 45 | 1024.0 | |
| 20260830050026 | 54 | 0.0 | 0.0 | 0.00 | 0.00 | 0.00 | 45 | 1024.0 | |
| 20260830045525 | 54 | 0.0 | 0.0 | 0.00 | 0.00 | 0.00 | 45 | 1024.1 | |
| 20260830045025 | 54 | 0.0 | 0.0 | 0.00 | 0.00 | 0.00 | 45 | 1024.2 | |
| 20260830044545 | 54 | 0.0 | 0.0 | 0.00 | 0.00 | 0.00 | 45 | 1024.1 | |
| 20260830044025 | 54 | 0.0 | 0.0 | 0.00 | 0.00 | 0.00 | 45 | 1024.0 | |
| 20260830043525 | 54 | 0.0 | 0.0 | 0.00 | 0.00 | 0.00 | 45 | 1024.0 | |
| 20260830043026 | 54 | 0.0 | 0.0 | 0.00 | 0.00 | 0.00 | 45 | 1024.0 | |
| 20260830042525 | 54 | 0.0 | 0.0 | 0.00 | 0.00 | 0.00 | 45 | 1023.8 | |
| 20260830042025 | 54 | 0.0 | 0.0 | 0.00 | 0.00 | 0.00 | 45 | 1023.8 | |
| 20260830041606 | 54 | 0.0 | 0.0 | 0.00 | 0.00 | 0.00 | 44 | 1023.7 | |
| 20260830041025 | 54 | 0.0 | 0.0 | 0.00 | 0.00 | 0.00 | 44 | 1023.7 | |
| 20260830040525 | 54 | 0.0 | 0.0 | 0.00 | 0.00 | 0.00 | 44 | 1023.7 | |
| 20260830040105 | 54 | 0.0 | 0.0 | 0.00 | 0.00 | 0.00 | 44 | 1023.6 | |
| 20260830035525 | 54 | 0.0 | 0.0 | 0.00 | 0.00 | 0.00 | 44 | 1023.7 | |
| 20260830035025 | 54 | 0.0 | 0.0 | 0.00 | 0.00 | 0.00 | 44 | 1023.6 | |
| 20260830034526 | 55 | 0.0 | 0.0 | 0.00 | 0.00 | 0.00 | 44 | 1023.7 | |
| 20260830034026 | 55 | 0.0 | 0.0 | 0.00 | 0.00 | 0.00 | 44 | 1023.7 | |
| 20260830033525 | 55 | 0.0 | 0.0 | 0.00 | 0.00 | 0.00 | 44 | 1023.8 | |
| 20260830033027 | 55 | 0.0 | 0.0 | 0.00 | 0.00 | 0.00 | 44 | 1023.8 |